,,,PA_Meas_PMT16A,,PR_Meas_QMR101_102,,RH_Meas_QMH101,,SR_Meas_QMS101,,TA_Meas_QMH101,,GenWind,,GenWind,
date,time,status,PA,status,PR,status,RH,status,SR,status,TA,status,DirAvg,status,SpdAvg,
2012-07-07, 07:21:04,VALID,1002.61,VALID,0,VALID,81.7587,VALID,199.86,VALID,27.2285,VALID,350,VALID,0,
2012-07-07, 07:22:04,VALID,1002.65,VALID,0,VALID,80.4389,VALID,204.913,VALID,27.248,VALID,350,VALID,0,
2012-07-07, 07:23:04,VALID,1002.65,VALID,0,VALID,81.3315,VALID,209.152,VALID,27.2849,VALID,351,VALID,0,
2012-07-07, 07:24:04,VALID,1002.69,VALID,0,VALID,81.2323,VALID,213.961,VALID,27.3454,VALID,351,VALID,0,
2012-07-07, 07:25:04,VALID,1002.72,VALID,0,VALID,80.3245,VALID,219.585,VALID,27.4408,VALID,355,VALID,0,
2012-07-07, 07:26:04,VALID,1002.71,VALID,0,VALID,80.8204,VALID,223.253,VALID,27.5598,VALID,355,VALID,0,
2012-07-07, 07:27:04,VALID,1002.72,VALID,0,VALID,80.3626,VALID,225.78,VALID,27.6182,VALID,356,VALID,0,
2012-07-07, 07:28:04,VALID,1002.72,VALID,0,VALID,80.7746,VALID,227.328,VALID,27.6767,VALID,356,VALID,0,
2012-07-07, 07:29:04,VALID,1002.72,VALID,0,VALID,79.5387,VALID,229.611,VALID,27.7546,VALID,356,VALID,0,
2012-07-07, 07:30:04,VALID,1002.75,VALID,0,VALID,80.7441,VALID,231.404,VALID,27.8131,VALID,11,VALID,0,
2012-07-07, 07:31:04,VALID,1002.74,VALID,0,VALID,79.409,VALID,235.398,VALID,27.9105,VALID,13,VALID,0,
2012-07-07, 07:32:04,VALID,1002.78,VALID,0,VALID,79.3022,VALID,240.696,VALID,28.008,VALID,340,VALID,0.448438,
2012-07-07, 07:33:04,VALID,1002.8,VALID,0,VALID,79.3175,VALID,242.571,VALID,28.1054,VALID,342,VALID,0.523828,
2012-07-07, 07:34:04,VALID,1002.81,VALID,0,VALID,78.2799,VALID,245.016,VALID,28.1639,VALID,348,VALID,0.498828,
2012-07-07, 07:35:04,VALID,1002.83,VALID,0,VALID,79.3785,VALID,245.179,VALID,28.2029,VALID,23,VALID,0.646484,
2012-07-07, 07:36:04,VALID,1002.82,VALID,0,VALID,77.1585,VALID,246.401,VALID,28.2224,VALID,354,VALID,0.914844,
2012-07-07, 07:37:04,VALID,1002.84,VALID,0,VALID,77.0059,VALID,248.113,VALID,28.2419,VALID,293,VALID,0.332422,
2012-07-07, 07:38:04,VALID,1002.81,VALID,0,VALID,77.4408,VALID,250.803,VALID,28.3198,VALID,349,VALID,0.780078,
2012-07-07, 07:39:04,VALID,1002.86,VALID,0,VALID,77.6696,VALID,252.107,VALID,28.3588,VALID,347,VALID,0.614453,
2012-07-07, 07:40:04,VALID,1002.87,VALID,0,VALID,77.1204,VALID,254.797,VALID,28.3978,VALID,337,VALID,0.379687,
2012-07-07, 07:41:04,VALID,1002.91,VALID,0,VALID,77.2043,VALID,256.264,VALID,28.4173,VALID,339,VALID,0.581641,
2012-07-07, 07:42:04,VALID,1002.88,VALID,0,VALID,78.4554,VALID,258.628,VALID,28.4758,VALID,6,VALID,0.868359,
2012-07-07, 07:43:04,VALID,1002.88,VALID,0,VALID,78.6843,VALID,264.089,VALID,28.4584,VALID,351,VALID,0.809375,
2012-07-07, 07:44:04,VALID,1002.92,VALID,0,VALID,77.9977,VALID,270.773,VALID,28.4584,VALID,354,VALID,0.65625,
2012-07-07, 07:45:04,VALID,1002.95,VALID,0,VALID,77.0898,VALID,277.782,VALID,28.4194,VALID,356,VALID,0.575391,
2012-07-07, 07:46:04,VALID,1002.93,VALID,0,VALID,78.135,VALID,281.206,VALID,28.3805,VALID,353,VALID,0.691016,
2012-07-07, 07:47:04,VALID,1002.96,VALID,0,VALID,77.1738,VALID,284.466,VALID,28.3588,VALID,1,VALID,0.578516,
2012-07-07, 07:48:04,VALID,1002.97,VALID,0,VALID,78.3257,VALID,289.357,VALID,28.3978,VALID,330,VALID,0.314453,
2012-07-07, 07:49:04,VALID,1002.98,VALID,0,VALID,77.5857,VALID,295.633,VALID,28.5148,VALID,349,VALID,0.607422,
2012-07-07, 07:50:04,VALID,1002.99,VALID,0,VALID,77.0288,VALID,299.545,VALID,28.5927,VALID,331,VALID,0.307813,
2012-07-07, 07:51:04,VALID,1002.96,VALID,0,VALID,77.5628,VALID,304.436,VALID,28.7119,VALID,330,VALID,0.480078,
2012-07-07, 07:52:04,VALID,1003,VALID,0,VALID,75.2589,VALID,306.147,VALID,28.8288,VALID,271,VALID,0.399609,
2012-07-07, 07:53:04,VALID,1002.95,VALID,0,VALID,74.8622,VALID,307.044,VALID,28.8072,VALID,300,VALID,0.767578,
2012-07-07, 07:54:04,VALID,1002.98,VALID,0,VALID,76.1591,VALID,310.223,VALID,28.8678,VALID,14,VALID,0.176953,
2012-07-07, 07:55:04,VALID,1002.95,VALID,0,VALID,76.2812,VALID,312.913,VALID,29.0043,VALID,20,VALID,0.0300781,
2012-07-07, 07:56:04,VALID,1002.96,VALID,0,VALID,73.2373,VALID,312.994,VALID,29.0238,VALID,229,VALID,1.64414,
2012-07-07, 07:57:04,VALID,1002.98,VALID,0,VALID,76.3041,VALID,314.054,VALID,28.8072,VALID,254,VALID,0.495313,
2012-07-07, 07:58:04,VALID,1002.98,VALID,0,VALID,75.442,VALID,318.863,VALID,28.7509,VALID,230,VALID,0.390625,
2012-07-07, 07:59:04,VALID,1002.95,VALID,0,VALID,75.0224,VALID,322.694,VALID,28.6512,VALID,230,VALID,0.134375,
2012-07-07, 08:00:04,VALID,1002.96,VALID,0,VALID,76.5253,VALID,326.525,VALID,28.6707,VALID,239,VALID,0.225,
2012-07-07, 08:01:04,VALID,1002.96,VALID,0,VALID,75.7166,VALID,329.051,VALID,28.8093,VALID,338,VALID,0.189453,
2012-07-07, 08:02:04,VALID,1002.98,VALID,0,VALID,74.1298,VALID,334.35,VALID,28.9436,VALID,337,VALID,0.155469,
2012-07-07, 08:03:04,VALID,1002.99,VALID,0,VALID,74.7249,VALID,336.469,VALID,29.1798,VALID,337,VALID,0.0351563,
2012-07-07, 08:04:04,VALID,1003,VALID,0,VALID,71.2537,VALID,341.441,VALID,29.3358,VALID,338,VALID,0.325,
2012-07-07, 08:05:04,VALID,1002.98,VALID,0,VALID,71.2537,VALID,345.272,VALID,29.3748,VALID,210,VALID,0.545313,
2012-07-07, 08:06:04,VALID,1002.98,VALID,0,VALID,73.4356,VALID,348.777,VALID,29.3358,VALID,244,VALID,0.449609,
2012-07-07, 08:07:04,VALID,1002.98,VALID,0,VALID,71.208,VALID,353.097,VALID,29.338,VALID,268,VALID,0.637109,
2012-07-07, 08:08:04,VALID,1002.98,VALID,0,VALID,71.0096,VALID,359.617,VALID,29.3163,VALID,265,VALID,0.915625,
2012-07-07, 08:09:04,VALID,1002.98,VALID,0,VALID,73.2907,VALID,365.404,VALID,29.2773,VALID,241,VALID,0.096875,
2012-07-07, 08:10:05,VALID,1003.01,VALID,0,VALID,72.1768,VALID,369.969,VALID,29.26,VALID,246,VALID,0.550391,
2012-07-07, 08:11:05,VALID,1003.02,VALID,0,VALID,72.4515,VALID,373.392,VALID,29.2383,VALID,280,VALID,0.708203,
2012-07-07, 08:12:05,VALID,1003.02,VALID,0,VALID,73.6416,VALID,378.609,VALID,29.2405,VALID,337,VALID,0.361328,
2012-07-07, 08:13:05,VALID,1003.01,VALID,0,VALID,72.215,VALID,382.766,VALID,29.3553,VALID,350,VALID,0.202344,
2012-07-07, 08:14:05,VALID,1002.99,VALID,0,VALID,70.7502,VALID,389.205,VALID,29.5135,VALID,294,VALID,0.433594,
2012-07-07, 08:15:05,VALID,1003.01,VALID,0,VALID,71.5208,VALID,395.4,VALID,29.6478,VALID,357,VALID,0.839063,
2012-07-07, 08:16:05,VALID,1002.99,VALID,0,VALID,71.2232,VALID,399.557,VALID,29.806,VALID,360,VALID,0.0417969,
2012-07-07, 08:17:05,VALID,1002.99,VALID,0,VALID,70.4069,VALID,403.388,VALID,29.9036,VALID,42,VALID,0.31875,
2012-07-07, 08:18:05,VALID,1002.99,VALID,0,VALID,68.7057,VALID,407.3,VALID,29.9988,VALID,353,VALID,0.724609,
2012-07-07, 08:19:05,VALID,1002.99,VALID,0,VALID,69.11,VALID,413.413,VALID,30.0791,VALID,295,VALID,0.479688,
2012-07-07, 08:20:05,VALID,1002.96,VALID,0,VALID,70.1094,VALID,418.548,VALID,30.1548,VALID,341,VALID,0.842578,
2012-07-07, 08:21:05,VALID,1002.95,VALID,0,VALID,68.7515,VALID,422.298,VALID,30.1158,VALID,350,VALID,1.24492,
2012-07-07, 08:22:05,VALID,1002.93,VALID,0,VALID,69.5144,VALID,428.9,VALID,29.9793,VALID,348,VALID,0.690234,
2012-07-07, 08:23:05,VALID,1002.93,VALID,0,VALID,68.9422,VALID,433.22,VALID,29.9816,VALID,348,VALID,0.433203,
2012-07-07, 08:24:05,VALID,1002.92,VALID,0,VALID,68.1488,VALID,449.033,VALID,29.9793,VALID,344,VALID,0.898047,
2012-07-07, 08:25:05,VALID,1002.87,VALID,0,VALID,68.4311,VALID,230.344,VALID,30.0596,VALID,342,VALID,0.217969,
2012-07-07, 08:26:05,VALID,1002.89,VALID,0,VALID,67.981,VALID,464.275,VALID,30.0768,VALID,273,VALID,0.975391,
2012-07-07, 08:27:05,VALID,1002.87,VALID,0,VALID,68.6065,VALID,467.617,VALID,30.0206,VALID,274,VALID,0.438281,
2012-07-07, 08:28:05,VALID,1002.9,VALID,0,VALID,69.11,VALID,447.565,VALID,29.9793,VALID,272,VALID,0.0785156,
2012-07-07, 08:29:05,VALID,1002.88,VALID,0,VALID,69.2245,VALID,375.186,VALID,30.0378,VALID,351,VALID,0.994141,
2012-07-07, 08:30:05,VALID,1002.9,VALID,0,VALID,69.4381,VALID,147.613,VALID,29.8428,VALID,6,VALID,0.666016,
2012-07-07, 08:37:04,VALID,1002.94,VALID,0,VALID,72.9168,VALID,103.19,VALID,28.6729,VALID,11,VALID,0.274609,
2012-07-07, 08:38:04,VALID,1002.92,VALID,0,VALID,74.0307,VALID,107.266,VALID,28.6361,VALID,11,VALID,0,
2012-07-07, 08:39:04,VALID,1002.91,VALID,0,VALID,74.0535,VALID,114.928,VALID,28.5581,VALID,22,VALID,0.600391,
2012-07-07, 08:40:04,VALID,1002.93,VALID,0,VALID,73.7942,VALID,120.715,VALID,28.5386,VALID,22,VALID,0.157422,
2012-07-07, 08:42:04,VALID,1002.95,VALID,0,VALID,74.0154,VALID,131.148,VALID,28.5386,VALID,22,VALID,0.221094,
2012-07-07, 08:43:04,VALID,1002.92,VALID,0,VALID,74.023,VALID,129.844,VALID,28.5364,VALID,22,VALID,0.105469,
2012-07-07, 08:44:04,VALID,1002.96,VALID,0,VALID,73.4966,VALID,123.649,VALID,28.4953,VALID,22,VALID,0.405859,
2012-07-07, 08:45:04,VALID,1002.99,VALID,0,VALID,74.1527,VALID,115.009,VALID,28.4368,VALID,22,VALID,0.195703,
2012-07-07, 08:52:04,VALID,1003,VALID,0,VALID,76.8915,VALID,123.568,VALID,28.0101,VALID,198,VALID,0.740234,
2012-07-07, 08:53:04,VALID,1003,VALID,0,VALID,78.547,VALID,133.919,VALID,27.9906,VALID,194,VALID,0.728516,
2012-07-07, 08:54:04,VALID,1002.99,VALID,0,VALID,78.4478,VALID,128.214,VALID,27.9321,VALID,190,VALID,0.621875,
2012-07-07, 08:55:04,VALID,1002.97,VALID,0,VALID,77.1661,VALID,129.192,VALID,27.9148,VALID,195,VALID,0.718359,
2012-07-07, 08:56:04,VALID,1002.95,VALID,0,VALID,78.5775,VALID,255.938,VALID,27.8737,VALID,188,VALID,0.630078,
2012-07-07, 08:57:04,VALID,1002.95,VALID,0,VALID,77.3874,VALID,140.766,VALID,27.8737,VALID,197,VALID,1.11055,
2012-07-07, 08:58:04,VALID,1002.9,VALID,0,VALID,77.7001,VALID,138.891,VALID,27.8737,VALID,211,VALID,1.28945,
2012-07-07, 08:59:04,VALID,1002.91,VALID,0,VALID,77.5476,VALID,147.45,VALID,27.8542,VALID,193,VALID,0.881641,
2012-07-07, 09:00:04,VALID,1002.89,VALID,0,VALID,78.9894,VALID,187.471,VALID,27.8542,VALID,196,VALID,0.5625,
2012-07-07, 09:01:04,VALID,1002.9,VALID,0,VALID,78.5927,VALID,199.941,VALID,27.8932,VALID,244,VALID,0.927344,
2012-07-07, 09:02:04,VALID,1002.86,VALID,0,VALID,78.4859,VALID,490.276,VALID,27.9127,VALID,227,VALID,0.739453,
2012-07-07, 09:03:04,VALID,1002.87,VALID,0,VALID,79.6074,VALID,641.068,VALID,28.0491,VALID,237,VALID,0.30625,
2012-07-07, 09:04:04,VALID,1002.81,VALID,0,VALID,79.5845,VALID,635.525,VALID,28.3025,VALID,235,VALID,0.494531,
2012-07-07, 09:05:04,VALID,1002.79,VALID,0,VALID,76.8152,VALID,615.474,VALID,28.5949,VALID,213,VALID,1.19336,
2012-07-07, 09:06:04,VALID,1002.81,VALID,0,VALID,75.1368,VALID,599.172,VALID,28.7119,VALID,193,VALID,1.07617,
2012-07-07, 09:07:04,VALID,1002.79,VALID,0,VALID,75.8082,VALID,593.955,VALID,28.8093,VALID,135,VALID,0.544922,
2012-07-07, 09:08:04,VALID,1002.79,VALID,0,VALID,74.0764,VALID,606.019,VALID,29.0043,VALID,200,VALID,1.23828,
2012-07-07, 09:09:04,VALID,1002.8,VALID,0,VALID,76.7389,VALID,467.291,VALID,29.1018,VALID,180,VALID,0.760156,
2012-07-07, 09:10:04,VALID,1002.8,VALID,0,VALID,72.8482,VALID,612.703,VALID,29.1798,VALID,212,VALID,0.882813,
2012-07-07, 09:11:04,VALID,1002.78,VALID,0,VALID,73.7026,VALID,613.681,VALID,29.2968,VALID,253,VALID,1.02461,
2012-07-07, 09:12:04,VALID,1002.75,VALID,0,VALID,72.8177,VALID,628.678,VALID,29.3965,VALID,195,VALID,0.785937,
2012-07-07, 09:13:04,VALID,1002.75,VALID,0,VALID,72.1082,VALID,427.759,VALID,29.3553,VALID,236,VALID,0.479297,
2012-07-07, 09:14:04,VALID,1002.76,VALID,0,VALID,74.1832,VALID,626.722,VALID,29.3943,VALID,236,VALID,0.213281,
2012-07-07, 09:15:04,VALID,1002.75,VALID,0,VALID,72.7719,VALID,326.362,VALID,29.5893,VALID,263,VALID,0.514844,
2012-07-07, 09:16:04,VALID,1002.73,VALID,0,VALID,71.4139,VALID,130.17,VALID,29.6455,VALID,226,VALID,0.751172,
2012-07-07, 09:17:04,VALID,1002.74,VALID,0,VALID,71.5589,VALID,123.894,VALID,29.4723,VALID,194,VALID,1.64297,
2012-07-07, 09:18:04,VALID,1002.73,VALID,0,VALID,72.5354,VALID,121.611,VALID,29.1408,VALID,195,VALID,1.26406,
2012-07-07, 09:19:04,VALID,1002.75,VALID,0,VALID,74.4274,VALID,117.373,VALID,28.9653,VALID,204,VALID,0.774609,
2012-07-07, 09:21:04,VALID,1002.75,VALID,0,VALID,74.435,VALID,116.313,VALID,28.8505,VALID,224,VALID,0.401563,
2012-07-07, 09:22:04,VALID,1002.74,VALID,0,VALID,75.9684,VALID,636.503,VALID,28.7509,VALID,136,VALID,0.893359,
2012-07-07, 09:23:04,VALID,1002.73,VALID,0,VALID,77.4408,VALID,666.335,VALID,28.7898,VALID,178,VALID,0.902734,
2012-07-07, 09:24:04,VALID,1002.69,VALID,0,VALID,78.3028,VALID,676.687,VALID,29.0238,VALID,212,VALID,0.250391,
2012-07-07, 09:25:04,VALID,1002.7,VALID,0,VALID,73.5958,VALID,681.496,VALID,29.2383,VALID,210,VALID,1.23555,
2012-07-07, 09:26:04,VALID,1002.68,VALID,0,VALID,72.8558,VALID,695.026,VALID,29.1993,VALID,159,VALID,1.65195,
2012-07-07, 09:27:04,VALID,1002.7,VALID,0,VALID,72.3142,VALID,696.005,VALID,29.2773,VALID,204,VALID,1.60859,
2012-07-07, 09:28:04,VALID,1002.69,VALID,0,VALID,73.5195,VALID,680.925,VALID,29.3163,VALID,183,VALID,0.753516,
2012-07-07, 09:29:04,VALID,1002.67,VALID,0,VALID,71.6504,VALID,698.776,VALID,29.4528,VALID,220,VALID,0.227734,
2012-07-07, 09:30:04,VALID,1002.65,VALID,0,VALID,71.948,VALID,369.806,VALID,29.6695,VALID,176,VALID,0.433594,
2012-07-07, 09:31:04,VALID,1002.67,VALID,0,VALID,71.0783,VALID,672.449,VALID,29.7063,VALID,218,VALID,1.45938,
2012-07-07, 09:32:04,VALID,1002.63,VALID,0,VALID,72.2684,VALID,667.313,VALID,29.6868,VALID,253,VALID,0.596875,
2012-07-07, 09:33:04,VALID,1002.64,VALID,0,VALID,70.3764,VALID,674.812,VALID,29.8255,VALID,235,VALID,1.12305,
2012-07-07, 09:34:04,VALID,1002.63,VALID,0,VALID,69.6135,VALID,679.214,VALID,29.689,VALID,160,VALID,1.84648,
2012-07-07, 09:35:04,VALID,1002.62,VALID,0,VALID,71.7038,VALID,691.603,VALID,29.533,VALID,142,VALID,1.27383,
2012-07-07, 09:36:04,VALID,1002.65,VALID,0,VALID,73.1457,VALID,712.469,VALID,29.4528,VALID,179,VALID,1.06797,
2012-07-07, 09:37:04,VALID,1002.62,VALID,0,VALID,71.4216,VALID,717.034,VALID,29.572,VALID,183,VALID,1.34219,
2012-07-07, 09:38:04,VALID,1002.62,VALID,0,VALID,74.8088,VALID,722.414,VALID,29.6913,VALID,124,VALID,1.19727,
2012-07-07, 09:39:04,VALID,1002.6,VALID,0,VALID,70.529,VALID,705.215,VALID,29.9036,VALID,211,VALID,1.1543,
2012-07-07, 09:40:04,VALID,1002.6,VALID,0,VALID,70.8723,VALID,697.879,VALID,29.9988,VALID,238,VALID,0.915625,
2012-07-07, 09:41:04,VALID,1002.57,VALID,0,VALID,72.3523,VALID,571.378,VALID,30.0355,VALID,340,VALID,0.371875,
2012-07-07, 09:42:04,VALID,1002.55,VALID,0,VALID,71.4521,VALID,717.523,VALID,30.2718,VALID,219,VALID,0.767969,
2012-07-07, 09:43:04,VALID,1002.57,VALID,0,VALID,71.0783,VALID,731.053,VALID,30.3304,VALID,218,VALID,0.582812,
2012-07-07, 09:44:04,VALID,1002.54,VALID,0,VALID,71.5818,VALID,735.292,VALID,30.4497,VALID,196,VALID,0.891016,
2012-07-07, 09:45:04,VALID,1002.52,VALID,0,VALID,68.0344,VALID,737.33,VALID,30.1938,VALID,170,VALID,1.39336,
2012-07-07, 09:46:04,VALID,1002.5,VALID,0,VALID,68.5073,VALID,730.564,VALID,29.9598,VALID,195,VALID,2.10781,
2012-07-07, 09:47:04,VALID,1002.5,VALID,0,VALID,72.5964,VALID,724.288,VALID,29.8623,VALID,214,VALID,1.27461,
2012-07-07, 09:48:04,VALID,1002.49,VALID,0,VALID,70.2467,VALID,712.388,VALID,30.0401,VALID,256,VALID,0.54375,
2012-07-07, 09:49:04,VALID,1002.51,VALID,0,VALID,67.8436,VALID,711.247,VALID,30.0791,VALID,190,VALID,1.79688,
2012-07-07, 09:50:04,VALID,1002.48,VALID,0,VALID,68.5607,VALID,720.946,VALID,29.9816,VALID,150,VALID,0.7125,
2012-07-07, 09:51:04,VALID,1002.49,VALID,0,VALID,69.3008,VALID,739.449,VALID,29.9208,VALID,157,VALID,0.930469,
2012-07-07, 09:52:04,VALID,1002.48,VALID,0,VALID,69.1482,VALID,768.14,VALID,29.9426,VALID,167,VALID,2.30508,
2012-07-07, 09:53:04,VALID,1002.46,VALID,0,VALID,70.6816,VALID,486.282,VALID,29.7063,VALID,179,VALID,1.62852,
2012-07-07, 09:54:04,VALID,1002.49,VALID,0,VALID,70.6205,VALID,789.332,VALID,29.689,VALID,188,VALID,2.25781,
2012-07-07, 09:55:04,VALID,1002.44,VALID,0,VALID,70.117,VALID,723.31,VALID,29.5308,VALID,200,VALID,0.928906,
2012-07-07, 09:56:05,VALID,1002.42,VALID,0,VALID,71.6123,VALID,780.203,VALID,29.5525,VALID,160,VALID,1.59219,
2012-07-07, 09:57:05,VALID,1002.41,VALID,0,VALID,71.7801,VALID,743.117,VALID,29.689,VALID,174,VALID,1.07187,
2012-07-07, 09:58:05,VALID,1002.36,VALID,0,VALID,71.9632,VALID,733.336,VALID,29.8818,VALID,195,VALID,1.08945,
2012-07-07, 09:59:05,VALID,1002.32,VALID,0,VALID,72.1463,VALID,726.081,VALID,30.0378,VALID,185,VALID,0.821484,
2012-07-07, 10:00:05,VALID,1002.27,VALID,0,VALID,70.2086,VALID,726.652,VALID,30.0791,VALID,188,VALID,1.5043,
2012-07-07, 10:01:05,VALID,1002.27,VALID,0,VALID,69.2397,VALID,728.608,VALID,30.0986,VALID,159,VALID,1.25,
2012-07-07, 10:02:05,VALID,1002.3,VALID,0,VALID,68.2251,VALID,725.511,VALID,30.2523,VALID,221,VALID,1.28633,
2012-07-07, 10:03:05,VALID,1002.32,VALID,0,VALID,72.0243,VALID,719.805,VALID,30.2913,VALID,224,VALID,0.848828,
2012-07-07, 10:04:05,VALID,1002.34,VALID,0,VALID,67.4698,VALID,720.865,VALID,30.2133,VALID,215,VALID,1.91914,
2012-07-07, 10:05:05,VALID,1002.31,VALID,0,VALID,65.5397,VALID,722.658,VALID,30.0963,VALID,183,VALID,1.30938,
2012-07-07, 10:06:05,VALID,1002.3,VALID,0,VALID,69.3694,VALID,702.688,VALID,30.0011,VALID,238,VALID,2.49258,
2012-07-07, 10:07:05,VALID,1002.3,VALID,0,VALID,69.8958,VALID,727.141,VALID,29.7843,VALID,188,VALID,1.98477,
2012-07-07, 10:08:05,VALID,1002.27,VALID,0,VALID,68.2403,VALID,728.364,VALID,29.6283,VALID,192,VALID,2.18086,
2012-07-07, 10:09:05,VALID,1002.25,VALID,0,VALID,70.8647,VALID,688.832,VALID,29.572,VALID,176,VALID,1.61602,
2012-07-07, 10:10:05,VALID,1002.3,VALID,0,VALID,70.0713,VALID,728.771,VALID,29.5113,VALID,157,VALID,2.3043,
2012-07-07, 10:11:05,VALID,1002.3,VALID,0,VALID,69.2473,VALID,503.725,VALID,29.6305,VALID,164,VALID,1.71836,
2012-07-07, 10:12:05,VALID,1002.32,VALID,0,VALID,71.7572,VALID,586.375,VALID,29.6305,VALID,186,VALID,1.55781,
2012-07-07, 10:13:05,VALID,1002.31,VALID,0,VALID,68.1793,VALID,735.373,VALID,29.6305,VALID,180,VALID,2.13008,
2012-07-07, 10:14:05,VALID,1002.3,VALID,0,VALID,69.6059,VALID,731.461,VALID,29.5893,VALID,218,VALID,1.50391,
2012-07-07, 10:15:05,VALID,1002.28,VALID,0,VALID,69.0108,VALID,735.292,VALID,29.533,VALID,234,VALID,0.834766,
2012-07-07, 10:16:05,VALID,1002.3,VALID,0,VALID,69.8729,VALID,740.672,VALID,29.494,VALID,181,VALID,1.57109,
2012-07-07, 10:17:05,VALID,1002.27,VALID,0,VALID,69.1863,VALID,745.318,VALID,29.5525,VALID,207,VALID,1.68906,
2012-07-07, 10:18:05,VALID,1002.31,VALID,0,VALID,69.789,VALID,600.802,VALID,29.6868,VALID,158,VALID,1.84023,
2012-07-07, 10:19:05,VALID,1002.27,VALID,0,VALID,69.1787,VALID,721.109,VALID,29.5915,VALID,142,VALID,2.03125,
2012-07-07, 10:20:05,VALID,1002.26,VALID,0,VALID,67.2181,VALID,742.139,VALID,29.7085,VALID,169,VALID,2.9793,
2012-07-07, 10:21:05,VALID,1002.26,VALID,0,VALID,70.2696,VALID,744.013,VALID,29.4723,VALID,132,VALID,1.97383,
2012-07-07, 10:22:05,VALID,1002.23,VALID,0,VALID,69.4991,VALID,750.127,VALID,29.3943,VALID,134,VALID,1.57969,
2012-07-07, 10:23:05,VALID,1002.2,VALID,0,VALID,70.9333,VALID,753.305,VALID,29.5503,VALID,235,VALID,1.51836,
2012-07-07, 10:24:05,VALID,1002.22,VALID,0,VALID,70.5443,VALID,751.92,VALID,29.7648,VALID,232,VALID,1.85273,
2012-07-07, 10:25:05,VALID,1002.21,VALID,0,VALID,69.6288,VALID,749.882,VALID,29.9013,VALID,187,VALID,1.9707,
2012-07-07, 10:26:05,VALID,1002.26,VALID,0,VALID,68.9575,VALID,753.713,VALID,29.8623,VALID,236,VALID,1.8082,
2012-07-07, 10:27:05,VALID,1002.27,VALID,0,VALID,69.7661,VALID,755.588,VALID,29.9208,VALID,187,VALID,1.59453,
2012-07-07, 10:28:05,VALID,1002.27,VALID,0,VALID,67.9581,VALID,753.713,VALID,29.9013,VALID,189,VALID,2.03086,
2012-07-07, 10:29:05,VALID,1002.29,VALID,0,VALID,67.9428,VALID,753.224,VALID,29.8623,VALID,181,VALID,1.87852,
2012-07-07, 10:30:05,VALID,1002.28,VALID,0,VALID,68.3166,VALID,757.218,VALID,29.7648,VALID,212,VALID,1.79453,
2012-07-07, 10:31:05,VALID,1002.27,VALID,0,VALID,72.5278,VALID,759.256,VALID,29.7843,VALID,176,VALID,1.50273,
2012-07-07, 10:32:05,VALID,1002.24,VALID,0,VALID,68.3777,VALID,758.44,VALID,29.8233,VALID,192,VALID,2.25508,
2012-07-07, 10:33:05,VALID,1002.21,VALID,0,VALID,70.1399,VALID,758.359,VALID,29.5893,VALID,170,VALID,1.85039,
2012-07-07, 10:34:05,VALID,1002.22,VALID,0,VALID,70.4451,VALID,763.249,VALID,29.4918,VALID,178,VALID,1.98438,
2012-07-07, 10:35:05,VALID,1002.2,VALID,0,VALID,68.6752,VALID,765.613,VALID,29.665,VALID,219,VALID,1.14023,
2012-07-07, 10:36:05,VALID,1002.18,VALID,0,VALID,66.4094,VALID,769.444,VALID,29.8255,VALID,253,VALID,0.619531,
2012-07-07, 10:37:05,VALID,1002.2,VALID,0,VALID,67.8741,VALID,770.178,VALID,29.9816,VALID,217,VALID,1.04414,
2012-07-07, 10:38:05,VALID,1002.2,VALID,0,VALID,64.3954,VALID,773.112,VALID,29.8818,VALID,198,VALID,1.94023,
2012-07-07, 10:39:05,VALID,1002.19,VALID,0,VALID,66.1653,VALID,768.466,VALID,29.7475,VALID,182,VALID,2.04727,
2012-07-07, 10:40:05,VALID,1002.14,VALID,0,VALID,64.5785,VALID,767.406,VALID,29.6478,VALID,135,VALID,0.903516,
2012-07-07, 10:41:05,VALID,1002.15,VALID,0,VALID,64.8226,VALID,766.102,VALID,29.767,VALID,184,VALID,1.48789,
2012-07-07, 10:42:05,VALID,1002.14,VALID,0,VALID,67.9352,VALID,771.645,VALID,29.8038,VALID,212,VALID,0.667578,
2012-07-07, 10:43:05,VALID,1002.12,VALID,0,VALID,64.548,VALID,766.591,VALID,29.9621,VALID,212,VALID,1.44219,
2012-07-07, 10:44:05,VALID,1002.12,VALID,0,VALID,67.3249,VALID,766.021,VALID,29.8818,VALID,231,VALID,1.08008,
2012-07-07, 10:45:05,VALID,1002.09,VALID,0,VALID,68.2709,VALID,769.363,VALID,29.806,VALID,189,VALID,2.21758,
2012-07-07, 10:46:05,VALID,1002.1,VALID,0,VALID,69.0719,VALID,774.09,VALID,29.845,VALID,208,VALID,1.21016,
2012-07-07, 10:47:05,VALID,1002.1,VALID,0,VALID,66.2339,VALID,774.824,VALID,29.845,VALID,159,VALID,1.74844,
2012-07-07, 10:48:05,VALID,1002.08,VALID,0,VALID,68.2174,VALID,780.692,VALID,29.7648,VALID,132,VALID,2.04102,
2012-07-07, 10:49:05,VALID,1002.1,VALID,0,VALID,67.2181,VALID,783.382,VALID,29.7648,VALID,175,VALID,1.78164,
2012-07-07, 10:50:05,VALID,1002.04,VALID,0,VALID,67.7979,VALID,781.67,VALID,29.9231,VALID,198,VALID,1.51094,
2012-07-07, 10:51:05,VALID,1002.03,VALID,0,VALID,68.5073,VALID,780.04,VALID,29.9403,VALID,161,VALID,1.58906,
2012-07-07, 10:52:05,VALID,1002.03,VALID,0,VALID,70.7197,VALID,780.774,VALID,30.0573,VALID,187,VALID,1.34648,
2012-07-07, 10:53:05,VALID,1002,VALID,0,VALID,68.3166,VALID,784.034,VALID,30.1353,VALID,174,VALID,1.3582,
2012-07-07, 10:54:05,VALID,1001.97,VALID,0,VALID,65.8601,VALID,786.398,VALID,30.172,VALID,220,VALID,1.52891,
2012-07-07, 10:55:05,VALID,1001.95,VALID,0,VALID,66.5086,VALID,788.273,VALID,30.1548,VALID,180,VALID,1.37266,
2012-07-07, 10:56:05,VALID,1001.96,VALID,0,VALID,69.8348,VALID,792.674,VALID,30.1158,VALID,211,VALID,0.994922,
2012-07-07, 10:57:05,VALID,1001.95,VALID,0,VALID,65.2193,VALID,796.994,VALID,30.289,VALID,123,VALID,1.35234,
2012-07-07, 10:58:05,VALID,1001.96,VALID,0,VALID,65.555,VALID,801.396,VALID,30.1135,VALID,167,VALID,2.46172,
2012-07-07, 10:59:05,VALID,1001.92,VALID,0,VALID,69.1634,VALID,805.716,VALID,29.9793,VALID,170,VALID,1.77422,
2012-07-07, 11:00:05,VALID,1001.95,VALID,0,VALID,67.1113,VALID,805.879,VALID,29.9988,VALID,192,VALID,0.71875,
2012-07-07, 11:01:05,VALID,1001.89,VALID,0,VALID,68.0572,VALID,800.173,VALID,30.133,VALID,191,VALID,0.686328,
2012-07-07, 11:02:05,VALID,1001.91,VALID,0,VALID,67.241,VALID,800.336,VALID,30.3109,VALID,198,VALID,1.33438,
2012-07-07, 11:03:05,VALID,1001.86,VALID,0,VALID,65.9974,VALID,796.098,VALID,30.5231,VALID,224,VALID,1.80703,
2012-07-07, 11:04:05,VALID,1001.91,VALID,0,VALID,63.8003,VALID,802.374,VALID,30.4669,VALID,163,VALID,2.47383,
2012-07-07, 11:05:05,VALID,1001.91,VALID,0,VALID,66.9587,VALID,800.01,VALID,30.1915,VALID,163,VALID,1.88867,
2012-07-07, 11:06:05,VALID,1001.87,VALID,0,VALID,64.6853,VALID,800.173,VALID,30.0378,VALID,156,VALID,1.72852,
2012-07-07, 11:07:05,VALID,1001.83,VALID,0,VALID,66.0432,VALID,798.95,VALID,29.9208,VALID,198,VALID,0.520312,
2012-07-07, 11:08:05,VALID,1001.84,VALID,0,VALID,66.089,VALID,796.75,VALID,30.0401,VALID,207,VALID,1.68984,
2012-07-07, 11:09:05,VALID,1001.83,VALID,0,VALID,66.3102,VALID,801.477,VALID,30.0011,VALID,243,VALID,1.34102,